Location: St. Louis
(38.6270°N, 90.1994°W)
Time: 03:57:51
(UTC-06:00)

Vanguard 2 Rocket - Pass Details

Date: 29 November 2021
Orbit: 554 x 3324 km, 32.9° (Epoch: 17 January)

Event Time Altitude Azimuth Distance (km) Brightness Sun altitude
Exits shadow 02:34:05 21° 182° (S) 5,386 10.6 -50.9°
Drops below altitude 10° 02:40:22 10° 167° (SSE) 6,157 11.1 -49.7°
Sets 02:45:57 0° 157° (SSE) 6,973 11.5 -48.6°
